Home   Weather   Fairfield County   Past weeks
Flag for USA

Past Weather in Fairfield County, Ohio, USA — Yesterday and Last 2 Weeks

Now
47 °F

Overcast.


Feels Like: 42 °F
Forecast: 49 / 28 °F
Wind: 10 mph from Northwest

Location: Fairfield County Airport

Current Time: Dec 6, 2019 at 4:03:32 pm

Latest Report: Dec 6, 2019 at 2:53 pm


Visibility: 9 mi

Pressure: 30.11 "Hg

Humidity: 66%

Dew Point: 36 °F

Location of Fairfield CountyLocation

Past Weather in Fairfield County — Graph

°F

Fairfield County Temperature Yesterday

Maximum temperature yesterday: 44 °F (at 2:53 pm)
Minimum temperature yesterday: 28 °F (at 10:53 pm)
Average temperature yesterday: 35 °F

High & Low Weather Summary for the Past Weeks

 TemperatureHumidityPressure
High58 °F (Nov 27, 10:53 am)97% (Nov 22, 6:53 am)30.47 "Hg (Nov 22, 6:53 am)
Low22 °F (Nov 23, 4:53 am)47% (Nov 26, 9:53 pm)29.37 "Hg (Dec 1, 6:35 am)
Average40 °F78%29.88 "Hg
* Reported Nov 21 2:53 pm — Dec 6 2:53 pm, Fairfield County. Weather by CustomWeather, © 2019

Note: Actual official high and low records may vary slightly from our data, if they occured in-between our weather recording intervals... More about our weather records

Fairfield County Weather History for the Previous 24 Hours

Scroll right to see more
 ConditionsComfort  
Time TempWeatherWind HumidityBarometerVisibility
2:53 pm
Fri, Dec 6
47 °FOvercast.10 mph66%30.11 "Hg9 mi
2:17 pm47 °FOvercast.12 mph66%30.09 "Hg10 mi
1:53 pm48 °FOvercast.16 mph63%30.10 "Hg10 mi
12:53 pm51 °FOvercast.12 mph56%30.09 "Hg10 mi
11:53 am50 °FMostly cloudy.10 mph61%30.09 "Hg10 mi
10:53 am49 °FMostly cloudy.12 mph59%30.09 "Hg10 mi
9:53 am47 °FOvercast.14 mph56%30.07 "Hg10 mi
8:53 am45 °FOvercast.10 mph56%30.05 "Hg10 mi
7:53 am39 °FOvercast.6 mph70%30.04 "Hg10 mi
6:53 am41 °FOvercast.3 mph65%30.05 "Hg10 mi
5:53 am40 °FOvercast.5 mph65%30.03 "Hg10 mi
4:53 am35 °FPassing clouds.No wind75%30.04 "Hg10 mi
3:53 am32 °FClear.3 mph75%30.05 "Hg10 mi
2:53 am31 °FClear.5 mph76%30.06 "Hg10 mi
1:53 am30 °FClear.3 mph79%30.06 "Hg10 mi
12:53 am28 °FClear.5 mph85%30.09 "Hg10 mi
11:53 pm
Thu, Dec 5
30 °FClear.5 mph79%30.10 "Hg10 mi
10:53 pm28 °FClear.5 mph81%30.11 "Hg10 mi
9:53 pm29 °FClear.6 mph82%30.11 "Hg10 mi
8:53 pm29 °FPassing clouds.No wind85%30.12 "Hg10 mi
7:53 pm29 °FClear.No wind82%30.12 "Hg10 mi
6:53 pm29 °FClear.No wind82%30.12 "Hg10 mi
5:53 pm39 °FClear.No wind57%30.11 "Hg10 mi
4:53 pm41 °FSunny.6 mph51%30.11 "Hg10 mi
Weather by CustomWeather, © 2019

See weather overview

Advertising